UAL1582 KSAN-KSEA

Flight info

Callsign UAL1582
Flight time 2h 32m
Altitude 36000
Route PADRZ2 EHF SHIMR LKV HAWKZ8
Aircraft B38M/M-SDE1FGHILORVWXY/HB1

Departure

Time 2026-05-07 02:30
Airport San Diego International Airport (KSAN)

Arrival

Time 2026-05-07 05:03
Airport Seattle–Tacoma International Airport (KSEA)
Time Latitude Longitude Altitude Speed Heading
2026-05-07 02:14 32.73414 -117.20263 28 ft 0 kts 357°
2026-05-07 02:15 32.73436 -117.20261 26 ft 9 kts 10°
2026-05-07 02:16 32.73512 -117.20244 28 ft 12 kts 18°
2026-05-07 02:16 32.73559 -117.20224 29 ft 0 kts 19°
2026-05-07 02:16 32.73563 -117.20226 28 ft 1 kts 330°
2026-05-07 02:16 32.73570 -117.20263 28 ft 10 kts 282°
2026-05-07 02:17 32.73581 -117.20337 30 ft 3 kts 251°
2026-05-07 02:17 32.73561 -117.20340 29 ft 4 kts 154°
2026-05-07 02:17 32.73548 -117.20286 27 ft 13 kts 97°
2026-05-07 02:17 32.73532 -117.20123 29 ft 26 kts 104°
2026-05-07 02:18 32.73478 -117.19898 30 ft 26 kts 105°
2026-05-07 02:18 32.73428 -117.19688 29 ft 27 kts 106°
2026-05-07 02:18 32.73376 -117.19469 29 ft 25 kts 107°
2026-05-07 02:18 32.73357 -117.19393 28 ft 0 kts 106°
2026-05-07 02:19 32.73346 -117.19350 27 ft 15 kts 106°
2026-05-07 02:19 32.73306 -117.19184 28 ft 26 kts 107°
2026-05-07 02:19 32.73252 -117.18958 28 ft 30 kts 105°
2026-05-07 02:20 32.73193 -117.18718 30 ft 30 kts 106°
2026-05-07 02:20 32.73135 -117.18470 27 ft 26 kts 105°
2026-05-07 02:20 32.73127 -117.18437 29 ft 6 kts 107°
2026-05-07 02:20 32.73098 -117.18328 26 ft 21 kts 107°
2026-05-07 02:21 32.73060 -117.18148 26 ft 20 kts 81°
2026-05-07 02:21 32.73069 -117.18128 24 ft 0 kts 47°
2026-05-07 02:29 32.73070 -117.18126 23 ft 2 kts 47°
2026-05-07 02:29 32.73129 -117.18124 24 ft 14 kts 321°
2026-05-07 02:30 32.73206 -117.18363 27 ft 66 kts 289°
2026-05-07 02:30 32.73415 -117.19200 25 ft 142 kts 286°
2026-05-07 02:30 32.73802 -117.20504 325 ft 183 kts 294°
2026-05-07 02:30 32.74405 -117.21880 1286 ft 185 kts 300°
2026-05-07 02:31 32.74970 -117.23268 2260 ft 192 kts 303°
2026-05-07 02:31 32.75739 -117.24659 2929 ft 211 kts 306°
2026-05-07 02:31 32.76616 -117.26185 3350 ft 237 kts 306°
2026-05-07 02:31 32.77594 -117.27850 3131 ft 252 kts 307°
2026-05-07 02:32 32.78615 -117.29568 2988 ft 257 kts 307°
2026-05-07 02:32 32.79656 -117.31301 3007 ft 258 kts 308°
2026-05-07 02:32 32.80763 -117.33027 3002 ft 270 kts 309°
2026-05-07 02:32 32.81947 -117.34860 2985 ft 287 kts 309°
2026-05-07 02:33 32.83198 -117.36802 2983 ft 304 kts 309°
2026-05-07 02:33 32.84521 -117.38857 2981 ft 321 kts 308°
2026-05-07 02:33 32.85888 -117.40986 3288 ft 325 kts 308°
2026-05-07 02:33 32.87235 -117.43082 4715 ft 312 kts 309°
2026-05-07 02:34 32.88519 -117.45081 6278 ft 297 kts 310°
2026-05-07 02:34 32.89741 -117.46986 7715 ft 283 kts 311°
2026-05-07 02:34 32.90928 -117.48832 8876 ft 282 kts 312°
2026-05-07 02:34 32.92134 -117.50708 9731 ft 289 kts 312°
2026-05-07 02:35 32.93349 -117.52599 10528 ft 296 kts 313°
2026-05-07 02:35 32.94641 -117.54605 10984 ft 316 kts 312°
2026-05-07 02:35 32.96020 -117.56752 11377 ft 336 kts 312°
2026-05-07 02:35 32.97479 -117.59029 11734 ft 355 kts 312°
2026-05-07 02:36 32.99002 -117.61410 12191 ft 369 kts 311°
2026-05-07 02:36 33.00570 -117.63864 12914 ft 373 kts 312°
2026-05-07 02:36 33.02151 -117.66337 13618 ft 379 kts 312°
2026-05-07 02:36 33.03760 -117.68853 14268 ft 383 kts 312°
2026-05-07 02:37 33.05378 -117.71385 14928 ft 386 kts 311°
2026-05-07 02:37 33.07196 -117.73707 15601 ft 382 kts 324°
2026-05-07 02:37 33.09236 -117.75783 16176 ft 388 kts 323°
2026-05-07 02:37 33.11278 -117.77896 16844 ft 390 kts 323°
2026-05-07 02:38 33.13342 -117.80013 17460 ft 393 kts 323°
2026-05-07 02:38 33.15427 -117.82140 18066 ft 396 kts 323°
2026-05-07 02:38 33.17532 -117.84285 18646 ft 399 kts 323°
2026-05-07 02:38 33.19661 -117.86417 19180 ft 400 kts 325°
2026-05-07 02:39 33.21831 -117.88521 19703 ft 403 kts 325°
2026-05-07 02:39 33.24015 -117.90649 20245 ft 406 kts 325°
2026-05-07 02:39 33.26210 -117.92792 20755 ft 409 kts 325°
2026-05-07 02:39 33.28419 -117.94951 21266 ft 412 kts 325°
2026-05-07 02:40 33.30641 -117.97125 21755 ft 414 kts 325°
2026-05-07 02:40 33.32881 -117.99317 22246 ft 417 kts 325°
2026-05-07 02:40 33.35132 -118.01522 22743 ft 420 kts 325°
2026-05-07 02:40 33.37401 -118.03745 23228 ft 423 kts 325°
2026-05-07 02:41 33.39683 -118.05984 23700 ft 426 kts 325°
2026-05-07 02:41 33.41981 -118.08239 24095 ft 428 kts 325°
2026-05-07 02:41 33.44291 -118.10508 24489 ft 431 kts 325°
2026-05-07 02:41 33.46613 -118.12790 24874 ft 433 kts 325°
2026-05-07 02:42 33.48950 -118.15089 25265 ft 436 kts 325°
2026-05-07 02:42 33.51298 -118.17401 25641 ft 439 kts 325°
2026-05-07 02:42 33.53665 -118.19732 26009 ft 441 kts 325°
2026-05-07 02:42 33.56041 -118.22073 26376 ft 443 kts 326°
2026-05-07 02:43 33.58617 -118.24044 26766 ft 437 kts 340°
2026-05-07 02:43 33.61407 -118.25533 26982 ft 443 kts 338°
2026-05-07 02:43 33.64183 -118.27148 27386 ft 444 kts 339°
2026-05-07 02:43 33.66962 -118.28728 27717 ft 446 kts 339°
2026-05-07 02:44 33.69797 -118.30317 28053 ft 449 kts 340°
2026-05-07 02:44 33.72638 -118.31893 28413 ft 451 kts 340°
2026-05-07 02:44 33.75502 -118.33450 28753 ft 452 kts 342°
2026-05-07 02:44 33.78410 -118.34904 29086 ft 455 kts 342°
2026-05-07 02:45 33.81334 -118.36380 29467 ft 456 kts 341°
2026-05-07 02:45 33.84253 -118.37861 29944 ft 455 kts 341°
2026-05-07 02:45 33.87160 -118.39338 30390 ft 453 kts 341°
2026-05-07 02:45 33.90064 -118.40814 30810 ft 452 kts 341°
2026-05-07 02:46 33.92961 -118.42285 31216 ft 451 kts 341°
2026-05-07 02:46 33.95842 -118.43752 31609 ft 450 kts 341°
2026-05-07 02:46 33.98726 -118.45211 32018 ft 447 kts 343°
2026-05-07 02:46 34.01706 -118.46061 32479 ft 437 kts 358°
2026-05-07 02:47 34.04727 -118.46429 32771 ft 439 kts 355°
2026-05-07 02:47 34.07745 -118.47007 33156 ft 437 kts 355°
2026-05-07 02:47 34.10753 -118.47531 33533 ft 436 kts 356°
2026-05-07 02:47 34.13759 -118.48027 33891 ft 435 kts 356°
2026-05-07 02:48 34.16759 -118.48504 34241 ft 434 kts 356°
2026-05-07 02:48 34.19753 -118.48969 34525 ft 434 kts 356°
2026-05-07 02:48 34.22745 -118.49429 34817 ft 433 kts 356°
2026-05-07 02:48 34.25736 -118.49889 35096 ft 432 kts 356°
2026-05-07 02:49 34.28718 -118.50348 35368 ft 432 kts 356°
2026-05-07 02:49 34.31700 -118.50808 35673 ft 431 kts 356°
2026-05-07 02:49 34.34674 -118.51267 35930 ft 431 kts 356°
2026-05-07 02:49 34.37647 -118.51726 36084 ft 432 kts 356°
2026-05-07 02:50 34.43588 -118.52645 36068 ft 429 kts 356°
2026-05-07 02:50 34.49516 -118.53562 36066 ft 430 kts 356°
2026-05-07 02:51 34.55448 -118.54481 36065 ft 430 kts 356°
2026-05-07 02:51 34.61395 -118.55405 36068 ft 431 kts 356°
2026-05-07 02:52 34.67346 -118.56330 36073 ft 431 kts 356°
2026-05-07 02:52 34.73305 -118.57258 36073 ft 431 kts 356°
2026-05-07 02:53 34.79251 -118.58185 36080 ft 431 kts 356°
2026-05-07 02:53 34.85200 -118.59114 36110 ft 431 kts 356°
2026-05-07 02:54 34.91151 -118.60043 36135 ft 431 kts 356°
2026-05-07 02:54 34.97090 -118.60974 36146 ft 431 kts 355°
2026-05-07 02:55 35.02777 -118.63184 36155 ft 440 kts 327°
2026-05-07 02:55 35.07534 -118.67984 36143 ft 445 kts 325°
2026-05-07 02:56 35.12293 -118.72810 36140 ft 444 kts 324°
2026-05-07 02:56 35.17049 -118.77637 36135 ft 445 kts 324°
2026-05-07 02:57 35.21799 -118.82468 36091 ft 444 kts 324°
2026-05-07 02:57 35.26521 -118.87277 36085 ft 444 kts 324°
2026-05-07 02:58 35.31268 -118.92117 36081 ft 444 kts 324°
2026-05-07 02:58 35.36010 -118.96963 36088 ft 444 kts 324°
2026-05-07 02:59 35.40755 -119.01818 36089 ft 444 kts 324°
2026-05-07 02:59 35.45496 -119.06675 36090 ft 444 kts 324°
2026-05-07 03:00 35.47973 -119.08903 36087 ft 437 kts 336°
2026-05-07 03:00 35.50781 -119.10209 36087 ft 430 kts 348°
2026-05-07 03:00 35.56541 -119.12390 36113 ft 435 kts 345°
2026-05-07 03:01 35.62331 -119.14554 36084 ft 434 kts 346°
2026-05-07 03:01 35.68165 -119.16639 36091 ft 434 kts 347°
2026-05-07 03:02 35.73924 -119.18668 36090 ft 434 kts 347°
2026-05-07 03:02 35.79730 -119.20716 36089 ft 434 kts 347°
2026-05-07 03:03 35.85535 -119.22769 36091 ft 434 kts 347°
2026-05-07 03:03 35.91336 -119.24822 36090 ft 434 kts 347°
2026-05-07 03:04 35.97142 -119.26880 36097 ft 434 kts 347°
2026-05-07 03:04 36.02945 -119.28940 36090 ft 434 kts 346°
2026-05-07 03:05 36.08755 -119.31006 36097 ft 434 kts 346°
2026-05-07 03:05 36.14561 -119.33075 36100 ft 434 kts 346°
2026-05-07 03:06 36.19391 -119.34797 36101 ft 435 kts 346°
2026-05-07 03:06 36.25202 -119.36872 36099 ft 435 kts 346°
2026-05-07 03:07 36.31028 -119.38956 36102 ft 435 kts 346°
2026-05-07 03:07 36.36843 -119.41040 36096 ft 435 kts 346°
2026-05-07 03:08 36.42660 -119.43126 36095 ft 435 kts 346°
2026-05-07 03:08 36.48481 -119.45219 36094 ft 435 kts 346°
2026-05-07 03:09 36.54301 -119.47314 36094 ft 435 kts 346°
2026-05-07 03:09 36.60122 -119.49412 36090 ft 435 kts 346°
2026-05-07 03:10 36.65948 -119.51516 36088 ft 435 kts 346°
2026-05-07 03:10 36.71730 -119.53607 36088 ft 435 kts 346°
2026-05-07 03:11 36.77558 -119.55718 36093 ft 435 kts 346°
2026-05-07 03:11 36.83373 -119.57828 36091 ft 435 kts 345°
2026-05-07 03:12 36.89185 -119.59940 36094 ft 435 kts 345°
2026-05-07 03:12 36.94994 -119.62054 36092 ft 435 kts 345°
2026-05-07 03:13 37.00799 -119.64170 36088 ft 434 kts 345°
2026-05-07 03:13 37.06567 -119.66276 36088 ft 434 kts 345°
2026-05-07 03:14 37.12369 -119.68398 36096 ft 434 kts 345°
2026-05-07 03:15 37.21108 -119.71600 36105 ft 434 kts 345°
2026-05-07 03:15 37.26866 -119.73714 36113 ft 434 kts 345°
2026-05-07 03:16 37.32703 -119.75860 36113 ft 434 kts 345°
2026-05-07 03:16 37.38459 -119.77981 36123 ft 434 kts 345°
2026-05-07 03:17 37.44253 -119.80118 36123 ft 433 kts 345°
2026-05-07 03:17 37.50041 -119.82257 36125 ft 433 kts 345°
2026-05-07 03:18 37.55827 -119.84398 36137 ft 433 kts 345°
2026-05-07 03:18 37.61615 -119.86544 36137 ft 433 kts 345°
2026-05-07 03:19 37.67394 -119.88690 36138 ft 433 kts 344°
2026-05-07 03:19 37.73150 -119.90831 36148 ft 433 kts 344°
2026-05-07 03:20 37.78948 -119.92990 36150 ft 433 kts 344°
2026-05-07 03:20 37.84720 -119.95144 36147 ft 432 kts 344°
2026-05-07 03:21 37.90499 -119.97304 36150 ft 432 kts 344°
2026-05-07 03:21 37.96268 -119.99463 36151 ft 432 kts 344°
2026-05-07 03:22 38.02034 -120.01625 36155 ft 432 kts 344°
2026-05-07 03:22 38.07760 -120.03775 36153 ft 432 kts 344°
2026-05-07 03:23 38.13518 -120.05941 36163 ft 432 kts 343°
2026-05-07 03:23 38.19274 -120.08109 36162 ft 431 kts 343°
2026-05-07 03:24 38.25114 -120.09704 36165 ft 430 kts 358°
2026-05-07 03:24 38.31098 -120.10222 36201 ft 432 kts 354°
2026-05-07 03:25 38.37097 -120.10866 36166 ft 432 kts 355°
2026-05-07 03:25 38.43101 -120.11433 36178 ft 432 kts 355°
2026-05-07 03:26 38.49100 -120.11979 36177 ft 433 kts 355°
2026-05-07 03:26 38.55110 -120.12528 36188 ft 433 kts 355°
2026-05-07 03:27 38.61122 -120.13077 36205 ft 432 kts 355°
2026-05-07 03:27 38.67115 -120.13626 36217 ft 432 kts 355°
2026-05-07 03:28 38.73113 -120.14176 36235 ft 432 kts 355°
2026-05-07 03:28 38.79146 -120.14731 36251 ft 432 kts 355°
2026-05-07 03:29 38.85142 -120.15282 36253 ft 432 kts 355°
2026-05-07 03:29 38.91137 -120.15835 36259 ft 432 kts 355°
2026-05-07 03:30 38.97092 -120.16386 36246 ft 431 kts 354°
2026-05-07 03:30 39.03080 -120.16940 36236 ft 431 kts 354°
2026-05-07 03:31 39.09067 -120.17495 36214 ft 431 kts 354°
2026-05-07 03:31 39.15046 -120.18049 36227 ft 431 kts 354°
2026-05-07 03:32 39.21029 -120.18605 36253 ft 431 kts 354°
2026-05-07 03:32 39.27009 -120.19162 36270 ft 431 kts 354°
2026-05-07 03:33 39.32982 -120.19720 36271 ft 430 kts 354°
2026-05-07 03:33 39.38958 -120.20279 36269 ft 430 kts 354°
2026-05-07 03:34 39.44930 -120.20839 36238 ft 430 kts 354°
2026-05-07 03:34 39.50903 -120.21398 36197 ft 430 kts 354°
2026-05-07 03:35 39.56832 -120.21955 36157 ft 430 kts 354°
2026-05-07 03:35 39.62795 -120.22517 36119 ft 430 kts 354°
2026-05-07 03:36 39.68762 -120.23079 36121 ft 430 kts 354°
2026-05-07 03:36 39.74724 -120.23643 36113 ft 429 kts 354°
2026-05-07 03:37 39.80691 -120.24207 36100 ft 429 kts 354°
2026-05-07 03:37 39.86650 -120.24772 36085 ft 429 kts 354°
2026-05-07 03:38 39.92612 -120.25337 36075 ft 429 kts 354°
2026-05-07 03:38 39.98567 -120.25904 36069 ft 429 kts 354°
2026-05-07 03:39 40.04522 -120.26472 36056 ft 429 kts 354°
2026-05-07 03:39 40.10476 -120.27040 36063 ft 429 kts 354°
2026-05-07 03:40 40.16428 -120.27609 36072 ft 429 kts 355°
2026-05-07 03:40 40.22378 -120.28179 36091 ft 429 kts 355°
2026-05-07 03:41 40.28333 -120.28750 36101 ft 429 kts 355°
2026-05-07 03:41 40.34283 -120.29321 36110 ft 429 kts 355°
2026-05-07 03:42 40.40237 -120.29895 36112 ft 429 kts 355°
2026-05-07 03:42 40.46194 -120.30470 36114 ft 429 kts 355°
2026-05-07 03:43 40.52149 -120.31045 36102 ft 429 kts 355°
2026-05-07 03:43 40.58107 -120.31622 36094 ft 429 kts 355°
2026-05-07 03:44 40.64069 -120.32200 36080 ft 429 kts 355°
2026-05-07 03:44 40.70029 -120.32779 36072 ft 429 kts 356°
2026-05-07 03:45 40.75984 -120.33359 36077 ft 429 kts 356°
2026-05-07 03:45 40.81945 -120.33940 36076 ft 429 kts 356°
2026-05-07 03:46 40.87909 -120.34522 36085 ft 429 kts 356°
2026-05-07 03:46 40.93864 -120.35105 36083 ft 429 kts 356°
2026-05-07 03:47 40.99781 -120.35685 36088 ft 429 kts 356°
2026-05-07 03:47 41.05736 -120.36270 36087 ft 429 kts 356°
2026-05-07 03:48 41.10676 -120.36755 36085 ft 428 kts 356°
2026-05-07 03:48 41.16614 -120.37341 36090 ft 428 kts 356°
2026-05-07 03:49 41.22547 -120.37926 36103 ft 427 kts 356°
2026-05-07 03:49 41.28475 -120.38513 36120 ft 427 kts 356°
2026-05-07 03:50 41.34396 -120.39099 36130 ft 427 kts 356°
2026-05-07 03:50 41.40312 -120.39686 36142 ft 426 kts 356°
2026-05-07 03:51 41.46228 -120.40274 36149 ft 426 kts 356°
2026-05-07 03:51 41.52133 -120.40862 36147 ft 425 kts 356°
2026-05-07 03:52 41.58033 -120.41451 36142 ft 425 kts 356°
2026-05-07 03:52 41.63930 -120.42041 36131 ft 424 kts 356°
2026-05-07 03:53 41.69820 -120.42630 36119 ft 425 kts 356°
2026-05-07 03:53 41.75713 -120.43222 36108 ft 425 kts 356°
2026-05-07 03:54 41.81575 -120.43811 36100 ft 424 kts 356°
2026-05-07 03:54 41.87466 -120.44405 36120 ft 424 kts 356°
2026-05-07 03:55 41.93358 -120.44999 36138 ft 424 kts 356°
2026-05-07 03:55 41.99250 -120.45594 36154 ft 424 kts 356°
2026-05-07 03:56 42.05130 -120.46190 36167 ft 424 kts 356°
2026-05-07 03:56 42.11014 -120.46786 36177 ft 424 kts 356°
2026-05-07 03:57 42.16897 -120.47384 36178 ft 424 kts 356°
2026-05-07 03:57 42.22778 -120.47983 36173 ft 424 kts 356°
2026-05-07 03:58 42.28653 -120.48583 36157 ft 424 kts 356°
2026-05-07 03:58 42.34531 -120.49183 36155 ft 424 kts 356°
2026-05-07 03:59 42.40372 -120.49781 36141 ft 423 kts 356°
2026-05-07 03:59 42.46274 -120.50386 36124 ft 423 kts 356°
2026-05-07 04:00 42.51892 -120.52204 36133 ft 421 kts 336°
2026-05-07 04:00 42.57243 -120.55498 36095 ft 421 kts 338°
2026-05-07 04:01 42.62602 -120.58743 36109 ft 422 kts 337°
2026-05-07 04:01 42.67958 -120.61991 36112 ft 421 kts 337°
2026-05-07 04:02 42.73304 -120.65238 36116 ft 421 kts 337°
2026-05-07 04:02 42.78652 -120.68492 36110 ft 421 kts 337°
2026-05-07 04:03 42.83994 -120.71750 36112 ft 421 kts 337°
2026-05-07 04:03 42.89335 -120.75013 36114 ft 420 kts 337°
2026-05-07 04:04 42.94671 -120.78279 36113 ft 420 kts 337°
2026-05-07 04:04 43.00010 -120.81552 36120 ft 421 kts 336°
2026-05-07 04:05 43.05343 -120.84829 36100 ft 420 kts 336°
2026-05-07 04:05 43.10665 -120.88105 36117 ft 420 kts 336°
2026-05-07 04:06 43.15991 -120.91390 36121 ft 419 kts 336°
2026-05-07 04:06 43.21311 -120.94678 36117 ft 419 kts 336°
2026-05-07 04:07 43.26626 -120.97969 36126 ft 420 kts 336°
2026-05-07 04:07 43.31944 -121.01268 36119 ft 419 kts 336°
2026-05-07 04:08 43.37261 -121.04572 36123 ft 419 kts 336°
2026-05-07 04:08 43.42577 -121.07883 36120 ft 419 kts 336°
2026-05-07 04:09 43.47851 -121.11174 36125 ft 419 kts 336°
2026-05-07 04:09 43.53192 -121.14512 36124 ft 419 kts 336°
2026-05-07 04:10 43.58498 -121.17835 36117 ft 419 kts 336°
2026-05-07 04:10 43.63769 -121.21144 36121 ft 419 kts 336°
2026-05-07 04:11 43.69075 -121.24480 36126 ft 419 kts 336°
2026-05-07 04:11 43.74361 -121.27808 35956 ft 419 kts 336°
2026-05-07 04:11 43.77025 -121.29488 35726 ft 420 kts 336°
2026-05-07 04:12 43.79683 -121.31169 35506 ft 420 kts 336°
2026-05-07 04:12 43.82347 -121.32855 35276 ft 422 kts 336°
2026-05-07 04:12 43.85036 -121.34556 35303 ft 425 kts 336°
2026-05-07 04:12 43.87725 -121.36260 35622 ft 424 kts 336°
2026-05-07 04:13 43.90408 -121.37962 35923 ft 424 kts 336°
2026-05-07 04:13 43.93086 -121.39660 36136 ft 424 kts 336°
2026-05-07 04:13 43.95763 -121.41362 36141 ft 422 kts 336°
2026-05-07 04:14 44.01093 -121.44753 36136 ft 421 kts 336°
2026-05-07 04:14 44.06422 -121.48153 36136 ft 421 kts 336°
2026-05-07 04:15 44.11720 -121.51536 36138 ft 421 kts 336°
2026-05-07 04:15 44.17038 -121.54940 36132 ft 420 kts 336°
2026-05-07 04:16 44.22346 -121.58346 36127 ft 420 kts 336°
2026-05-07 04:16 44.27648 -121.61753 36133 ft 419 kts 336°
2026-05-07 04:17 44.32942 -121.65162 36127 ft 419 kts 336°
2026-05-07 04:17 44.38225 -121.68572 36128 ft 418 kts 335°
2026-05-07 04:18 44.43503 -121.71984 36134 ft 417 kts 335°
2026-05-07 04:18 44.48777 -121.75401 36136 ft 417 kts 335°
2026-05-07 04:19 44.54045 -121.78820 36137 ft 417 kts 335°
2026-05-07 04:19 44.59311 -121.82246 36155 ft 417 kts 335°
2026-05-07 04:20 44.64561 -121.85668 36156 ft 416 kts 335°
2026-05-07 04:20 44.69810 -121.89095 36159 ft 416 kts 335°
2026-05-07 04:21 44.77687 -121.94254 36158 ft 416 kts 335°
2026-05-07 04:21 44.82941 -121.97701 36172 ft 417 kts 335°
2026-05-07 04:22 44.88195 -122.01157 36162 ft 416 kts 335°
2026-05-07 04:22 44.93446 -122.04618 36178 ft 417 kts 335°
2026-05-07 04:23 44.98701 -122.08088 36173 ft 417 kts 335°
2026-05-07 04:23 45.03966 -122.11572 36064 ft 419 kts 335°
2026-05-07 04:24 45.06597 -122.13316 35833 ft 418 kts 335°
2026-05-07 04:24 45.09233 -122.15063 35615 ft 419 kts 335°
2026-05-07 04:24 45.11870 -122.16816 35389 ft 419 kts 335°
2026-05-07 04:24 45.14516 -122.18574 35164 ft 421 kts 335°
2026-05-07 04:25 45.17172 -122.20341 34951 ft 422 kts 335°
2026-05-07 04:25 45.19828 -122.22110 34731 ft 423 kts 335°
2026-05-07 04:25 45.22491 -122.23885 34508 ft 423 kts 335°
2026-05-07 04:25 45.25161 -122.25666 34292 ft 424 kts 335°
2026-05-07 04:26 45.27837 -122.27453 34066 ft 426 kts 335°
2026-05-07 04:26 45.30518 -122.29248 33823 ft 427 kts 335°
2026-05-07 04:26 45.33204 -122.31049 33581 ft 428 kts 335°
2026-05-07 04:26 45.35909 -122.32862 33335 ft 429 kts 335°
2026-05-07 04:27 45.38606 -122.34673 33104 ft 430 kts 335°
2026-05-07 04:27 45.41314 -122.36491 32859 ft 430 kts 335°
2026-05-07 04:27 45.44024 -122.38314 32625 ft 431 kts 335°
2026-05-07 04:27 45.46734 -122.40138 32396 ft 432 kts 335°
2026-05-07 04:28 45.49448 -122.41968 32154 ft 432 kts 335°
2026-05-07 04:28 45.52174 -122.43807 31935 ft 433 kts 335°
2026-05-07 04:28 45.54899 -122.45647 31700 ft 434 kts 335°
2026-05-07 04:28 45.57631 -122.47495 31470 ft 435 kts 335°
2026-05-07 04:29 45.60367 -122.49346 31253 ft 436 kts 335°
2026-05-07 04:29 45.62217 -122.50600 31101 ft 436 kts 335°
2026-05-07 04:29 45.64961 -122.52460 30877 ft 437 kts 335°
2026-05-07 04:29 45.68600 -122.54932 30602 ft 438 kts 335°
2026-05-07 04:30 45.70462 -122.56197 30453 ft 438 kts 335°
2026-05-07 04:30 45.73218 -122.58068 30220 ft 439 kts 336°
2026-05-07 04:30 45.76135 -122.59329 29971 ft 440 kts 350°
2026-05-07 04:30 45.79172 -122.59966 29673 ft 442 kts 348°
2026-05-07 04:31 45.82193 -122.60838 29420 ft 443 kts 348°
2026-05-07 04:31 45.85219 -122.61656 29162 ft 443 kts 349°
2026-05-07 04:31 45.88229 -122.62440 28466 ft 439 kts 349°
2026-05-07 04:31 45.91247 -122.63205 27508 ft 441 kts 349°
2026-05-07 04:32 45.94282 -122.63961 26546 ft 444 kts 349°
2026-05-07 04:32 45.97336 -122.64720 25579 ft 447 kts 349°
2026-05-07 04:32 46.00372 -122.65474 24733 ft 449 kts 349°
2026-05-07 04:32 46.03429 -122.66235 24511 ft 446 kts 349°
2026-05-07 04:33 46.06505 -122.67000 24315 ft 449 kts 349°
2026-05-07 04:33 46.09588 -122.67716 24253 ft 449 kts 351°
2026-05-07 04:33 46.12690 -122.68309 24241 ft 450 kts 351°
2026-05-07 04:33 46.15798 -122.68924 24244 ft 450 kts 351°
2026-05-07 04:34 46.18903 -122.69550 24242 ft 450 kts 351°
2026-05-07 04:34 46.21999 -122.70178 24237 ft 450 kts 351°
2026-05-07 04:34 46.25099 -122.70806 24239 ft 450 kts 351°
2026-05-07 04:34 46.28195 -122.71435 24239 ft 450 kts 351°
2026-05-07 04:35 46.31297 -122.72051 24235 ft 450 kts 353°
2026-05-07 04:35 46.34433 -122.72238 24220 ft 451 kts 356°
2026-05-07 04:35 46.37566 -122.72383 24228 ft 451 kts 356°
2026-05-07 04:35 46.40705 -122.72513 24213 ft 451 kts 357°
2026-05-07 04:36 46.43848 -122.72629 24216 ft 451 kts 357°
2026-05-07 04:36 46.46987 -122.72742 24222 ft 451 kts 357°
2026-05-07 04:36 46.50123 -122.72853 24219 ft 451 kts 357°
2026-05-07 04:36 46.53260 -122.72966 24233 ft 451 kts 357°
2026-05-07 04:37 46.56396 -122.73080 24225 ft 451 kts 357°
2026-05-07 04:37 46.59533 -122.73194 24229 ft 451 kts 357°
2026-05-07 04:37 46.62671 -122.73306 24238 ft 451 kts 357°
2026-05-07 04:37 46.65807 -122.73420 24229 ft 451 kts 357°
2026-05-07 04:38 46.68942 -122.73534 24237 ft 451 kts 357°
2026-05-07 04:38 46.72077 -122.73648 24238 ft 451 kts 357°
2026-05-07 04:38 46.75219 -122.73747 23911 ft 440 kts 359°
2026-05-07 04:38 46.78247 -122.73077 23002 ft 446 kts 15°
2026-05-07 04:39 46.80995 -122.71055 22059 ft 455 kts 34°
2026-05-07 04:39 46.83396 -122.67927 21276 ft 454 kts 38°
2026-05-07 04:39 46.85827 -122.65152 20720 ft 446 kts 34°
2026-05-07 04:39 46.88300 -122.62396 20261 ft 436 kts 35°
2026-05-07 04:40 46.90649 -122.59743 19886 ft 428 kts 35°
2026-05-07 04:40 46.92983 -122.57116 19465 ft 419 kts 32°
2026-05-07 04:40 46.95544 -122.55282 19000 ft 405 kts 13°
2026-05-07 04:40 46.98230 -122.54191 18668 ft 397 kts 13°
2026-05-07 04:41 47.00864 -122.53076 18285 ft 391 kts 14°
2026-05-07 04:41 47.03449 -122.51962 17905 ft 385 kts 14°
2026-05-07 04:41 47.05995 -122.50853 17539 ft 378 kts 14°
2026-05-07 04:41 47.08510 -122.49844 17217 ft 369 kts
2026-05-07 04:42 47.11018 -122.49431 17038 ft 357 kts
2026-05-07 04:42 47.13460 -122.49014 16842 ft 348 kts
2026-05-07 04:42 47.15830 -122.48575 16674 ft 339 kts
2026-05-07 04:42 47.18183 -122.48121 16510 ft 346 kts
2026-05-07 04:43 47.20598 -122.47741 16147 ft 350 kts
2026-05-07 04:43 47.23052 -122.47379 15345 ft 360 kts
2026-05-07 04:43 47.25592 -122.46996 14446 ft 372 kts
2026-05-07 04:43 47.28196 -122.46599 13573 ft 381 kts
2026-05-07 04:44 47.30835 -122.46193 13027 ft 379 kts
2026-05-07 04:44 47.33448 -122.45788 12483 ft 376 kts
2026-05-07 04:44 47.36033 -122.45497 12167 ft 367 kts 359°
2026-05-07 04:44 47.38586 -122.45493 12054 ft 362 kts 359°
2026-05-07 04:45 47.41060 -122.45477 12043 ft 351 kts 359°
2026-05-07 04:45 47.43505 -122.45499 12027 ft 350 kts 359°
2026-05-07 04:45 47.45939 -122.45512 12011 ft 350 kts 359°
2026-05-07 04:45 47.48376 -122.45518 12003 ft 350 kts 359°
2026-05-07 04:46 47.50807 -122.45522 11999 ft 350 kts 359°
2026-05-07 04:46 47.53240 -122.45554 12002 ft 350 kts 358°
2026-05-07 04:46 47.55706 -122.45595 12001 ft 362 kts 358°
2026-05-07 04:46 47.58253 -122.45637 11996 ft 369 kts 359°
2026-05-07 04:47 47.60830 -122.45680 11998 ft 372 kts 358°
2026-05-07 04:47 47.63424 -122.45722 11998 ft 373 kts 359°
2026-05-07 04:47 47.65996 -122.45762 11718 ft 368 kts 359°
2026-05-07 04:47 47.68563 -122.45803 11130 ft 369 kts 359°
2026-05-07 04:48 47.71118 -122.45844 10625 ft 367 kts 359°
2026-05-07 04:48 47.73663 -122.45884 10190 ft 363 kts 359°
2026-05-07 04:48 47.76179 -122.45923 10055 ft 363 kts 359°
2026-05-07 04:48 47.78677 -122.45949 9999 ft 364 kts 359°
2026-05-07 04:49 47.81244 -122.45960 9998 ft 365 kts 359°
2026-05-07 04:49 47.83784 -122.45970 9995 ft 365 kts 359°
2026-05-07 04:49 47.86318 -122.45981 9997 ft 365 kts 359°
2026-05-07 04:49 47.88858 -122.45984 9998 ft 365 kts
2026-05-07 04:50 47.91292 -122.45261 10001 ft 352 kts 22°
2026-05-07 04:50 47.93286 -122.43373 10006 ft 338 kts 39°
2026-05-07 04:50 47.95040 -122.41068 9917 ft 327 kts 45°
2026-05-07 04:50 47.96267 -122.38300 9580 ft 326 kts 68°
2026-05-07 04:51 47.96869 -122.35033 9141 ft 327 kts 78°
2026-05-07 04:51 47.97071 -122.31656 8788 ft 325 kts 89°
2026-05-07 04:51 47.97044 -122.28327 8630 ft 317 kts 96°
2026-05-07 04:51 47.96379 -122.25297 8435 ft 302 kts 122°
2026-05-07 04:52 47.94976 -122.23113 8218 ft 286 kts 150°
2026-05-07 04:52 47.93164 -122.22283 8033 ft 266 kts 186°
2026-05-07 04:52 47.91522 -122.23141 7834 ft 245 kts 219°
2026-05-07 04:52 47.90175 -122.24691 7335 ft 245 kts 218°
2026-05-07 04:53 47.88769 -122.26034 7284 ft 232 kts 216°
2026-05-07 04:53 47.87427 -122.27146 7221 ft 210 kts 208°
2026-05-07 04:53 47.86085 -122.27968 7181 ft 208 kts 205°
2026-05-07 04:53 47.84723 -122.28681 7094 ft 208 kts 201°
2026-05-07 04:54 47.83340 -122.29295 7010 ft 207 kts 199°
2026-05-07 04:54 47.81941 -122.29823 6994 ft 208 kts 197°
2026-05-07 04:54 47.80522 -122.30268 6986 ft 207 kts 192°
2026-05-07 04:54 47.79103 -122.30432 6544 ft 206 kts 185°
2026-05-07 04:55 47.77674 -122.30489 6165 ft 205 kts 184°
2026-05-07 04:55 47.76243 -122.30537 5998 ft 206 kts 184°
2026-05-07 04:55 47.74827 -122.30570 5823 ft 200 kts 183°
2026-05-07 04:55 47.73444 -122.30564 5281 ft 194 kts 182°
2026-05-07 04:56 47.72148 -122.30556 4913 ft 180 kts 183°
2026-05-07 04:56 47.70950 -122.30567 4524 ft 166 kts 183°
2026-05-07 04:56 47.69829 -122.30579 4158 ft 156 kts 182°
2026-05-07 04:56 47.68763 -122.30590 3748 ft 151 kts 182°
2026-05-07 04:57 47.67724 -122.30600 3353 ft 147 kts 182°
2026-05-07 04:57 47.66717 -122.30607 2939 ft 142 kts 182°
2026-05-07 04:57 47.65742 -122.30616 2539 ft 138 kts 182°
2026-05-07 04:57 47.64784 -122.30625 2143 ft 137 kts 183°
2026-05-07 04:58 47.63838 -122.30642 1891 ft 135 kts 183°
2026-05-07 04:58 47.62893 -122.30650 1854 ft 137 kts 182°
2026-05-07 04:58 47.61939 -122.30650 1876 ft 137 kts 182°
2026-05-07 04:58 47.60984 -122.30659 1882 ft 137 kts 182°
2026-05-07 04:59 47.60029 -122.30667 1889 ft 138 kts 182°
2026-05-07 04:59 47.59076 -122.30674 1896 ft 138 kts 182°
2026-05-07 04:59 47.58114 -122.30683 1890 ft 138 kts 183°
2026-05-07 04:59 47.57152 -122.30693 1900 ft 138 kts 182°
2026-05-07 05:00 47.56188 -122.30700 1917 ft 138 kts 182°
2026-05-07 05:00 47.55231 -122.30701 1905 ft 138 kts 182°
2026-05-07 05:00 47.54275 -122.30693 1896 ft 137 kts 182°
2026-05-07 05:00 47.53316 -122.30702 1886 ft 138 kts 183°
2026-05-07 05:01 47.52358 -122.30711 1761 ft 138 kts 182°
2026-05-07 05:01 47.51400 -122.30721 1597 ft 138 kts 182°
2026-05-07 05:01 47.50440 -122.30729 1424 ft 138 kts 183°
2026-05-07 05:01 47.49465 -122.30746 1226 ft 148 kts 183°
2026-05-07 05:02 47.48471 -122.30761 950 ft 137 kts 182°
2026-05-07 05:02 47.47493 -122.30761 681 ft 143 kts 182°
2026-05-07 05:02 47.46541 -122.30763 454 ft 130 kts 184°
2026-05-07 05:02 47.45736 -122.30794 386 ft 92 kts 180°
2026-05-07 05:03 47.45319 -122.30800 386 ft 40 kts 177°
2026-05-07 05:03 47.45026 -122.30792 386 ft 42 kts 184°
2026-05-07 05:03 47.44739 -122.30790 386 ft 41 kts 180°
2026-05-07 05:03 47.44595 -122.30706 386 ft 22 kts 107°
2026-05-07 05:04 47.44469 -122.30631 386 ft 22 kts 181°
2026-05-07 05:04 47.44315 -122.30626 386 ft 20 kts 159°
2026-05-07 05:04 47.44250 -122.30541 386 ft 12 kts 133°
2026-05-07 05:04 47.44232 -122.30473 386 ft 0 kts 95°